Regional Weather Roundup
Issued by NWS

Home | Current Version | Previous Version | Graphics & Text | Print | Product List | Glossary On
Versions: 1 2 3 4 5 6 7 8 9 10 11 12 13 14 15 16 17 18 19 20 21 22 23 24 25 26 27 28 29 30 31 32 33 34 35 36 37 38 39 40 41 42 43 44 45 46 47 48 49 50
000
ASUS43 KMPX 050101
RWRMN
WEATHER ROUNDUP FOR MINNESOTA
NATIONAL WEATHER SERVICE TWIN CITIES/CHANHASSEN MN
800 PM CDT WED MAY 04 2016


NOTE: "FAIR" INDICATES FEW OR NO CLOUDS BELOW 12,000 FEET WITH NO
SIGNIFICANT WEATHER AND/OR OBSTRUCTIONS TO VISIBILITY. N/A MEANS
CURRENT SKY AND/OR WEATHER CONDITIONS ARE NOT AVAILABLE.

MNZ060>063-068>070-050200-
   Twin Cities Metro

CITY           SKY/WX    TMP DP  RH WIND       PRES   REMARKS
TWIN CITIES    PTCLDY    62  22  21 N12G20    29.95R
ST PAUL        CLEAR     62  23  22 N8        29.95R
CRYSTAL        CLEAR     63  23  21 N7        29.94S
BLAINE         CLEAR     63  25  23 N7        29.95R
EDEN PRAIRIE   CLEAR     63  20  19 N6        29.94S
SOUTH ST PAUL  CLEAR     63  22  20 N7        29.94S
LAKE ELMO      FAIR      61  27  27 N5        29.95S
$$
MNZ001>005-007-008-013>017-022>024-027-028-050200-
   Northwest Minnesota

CITY           SKY/WX    TMP DP  RH WIND       PRES   REMARKS
BEMIDJI        CLEAR     57  24  27 NE5       29.98S
HALLOCK        MOCLDY    68  19  15 S8        29.93F
ROSEAU         CLOUDY    63  34  34 SW6       29.95F
WARROAD        PTCLDY    55  37  50 E8        29.96F
THIEF RVR FALL PTCLDY    64  25  22 W5        29.98S
CROOKSTON      PTCLDY    66  28  24 W5        29.97S
FOSSTON        CLEAR     61  21  21 CALM      29.98F
DETROIT LAKES  CLEAR     63  32  31 N3        30.00R
MOORHEAD       CLEAR     70  25  18 N3        29.98S
PARK RAPIDS    CLEAR     64  22  20 NE7       29.97R
MAHNOMEN       FAIR      65  25  22 N6        29.98S
$$
MNZ006-009>011-018-025>026-050200-
   North Central Minnesota

CITY           SKY/WX    TMP DP  RH WIND       PRES   REMARKS
BAUDETTE       CLEAR     56  25  30 CALM      29.97F
FLAG ISLAND    CLOUDY    48  41  76 S7        29.94F
INTL FALLS     CLEAR     58  17  20 NE3       29.96F
WASKISH        CLEAR     57  21  24 CALM      29.98S
BIG FORK       CLEAR     59  18  20 CALM      29.97S
LONGVILLE      CLEAR     61  19  20 W3        29.98R
GRAND RAPIDS   CLEAR     59  19  21 N3        29.98S
CRANE LAKE     PTCLDY    55  14  19 CALM      29.98S
ORR            CLEAR     57  10  15 CALM      29.95S
COOK           CLEAR     57  18  21 N3        29.98R
WALKER         FAIR      60  23  24 N7        29.98S
$$
MNZ012-019>021-037-050200-
   Northeast Minnesota

CITY           SKY/WX    TMP DP  RH WIND       PRES   REMARKS
DULUTH         CLEAR     48  25  40 E8        29.97R
ELY            CLEAR     54  19  26 CALM      29.97S
HIBBING        CLEAR     55  16  21 N6        29.96S
EVELETH        CLEAR     57  16  19 CALM      29.98S
DULUTH HARBOR  CLEAR     45  34  65 E3        30.00R
TWO HARBORS    CLEAR     48  34  57 CALM      29.97S
SILVER BAY     CLEAR     45  30  57 CALM      29.97S
GRAND MARAIS     N/A     40  31  70 W6        30.00R
G MARAIS ARPRT CLEAR     39  27  60 S5        29.98R
$$
MNZ029>031-032-039>041-046>048-054>057-064-050200-
   West Central Minnesota

CITY           SKY/WX    TMP DP  RH WIND       PRES   REMARKS
FERGUS FALLS   CLEAR     64  32  29 N7        29.95S
WHEATON        CLEAR     66  34  30 N6        30.00S
MORRIS         CLEAR     66  30  26 N10       29.97F
ALEXANDRIA     CLEAR     62  26  25 NW9       29.99S
ELBOW LAKE     FAIR      64  35  34 NW7       29.99S
WADENA         CLEAR     63  30  29 N7        29.97S
GLENWOOD       CLEAR     63  27  25 NW8       29.99R
APPLETON       CLEAR     66  27  22 N8        29.97F
BENSON         CLEAR     63  23  22 NE7       29.98S
ORTONVILLE     CLEAR     66  28  24 NW5       29.98S
MADISON        CLEAR     64  27  24 N10       29.98F
WILLMAR        FAIR      64  30  27 NW10      29.98S
$$
MNZ033>034-036-042>043-049>051-058-059-050200-
   Central Minnesota

CITY           SKY/WX    TMP DP  RH WIND       PRES   REMARKS
ST CLOUD       CLEAR     62  23  22 N8        29.96R
SAUK CENTRE    FAIR      62  26  24 N5        29.97S
PAYNESVILLE    CLEAR     64  21  19 N5        29.97S
AITKIN         CLEAR     61  12  15 CALM      29.95S
PINE RIVER     CLEAR     59  28  31 NE3       30.01S
BRAINERD       CLEAR     60  24  25 N8        29.98R
STAPLES        CLEAR     63  21  20 NE5       29.97S
LONG PRAIRIE   FAIR      63  27  25 NW5       29.98R
LITTLE FALLS   CLEAR     61  23  23 N3        29.98R
LITCHFIELD     CLEAR     64  27  24 N7        29.97S
BUFFALO        CLEAR     62  26  25 NE3       29.97R
MAPLE LAKE     CLEAR     63  29  28 N6        29.97S
HUTCHINSON     MOCLDY    63  30  29 N8        29.97S
$$
MNZ037-044-045-052-053-050200-
   East Central Minnesota

CITY           SKY/WX    TMP DP  RH WIND       PRES   REMARKS
PRINCETON      CLEAR     61  23  23 N6        29.96S
MORA           CLEAR     59  19  21 CALM      29.97S
CAMBRIDGE      CLEAR     64  37  36 CALM      29.94S
RUSH CITY      CLEAR     58  25  27 NE3       29.95S
MOOSE LAKE     CLEAR     59  25  27 E3        29.94R
HINCKLEY       CLOUDY    61  23  23 N6        29.95S
CLOQUET        CLEAR     52  23  32 E5        29.97S
MCGREGOR       CLEAR     59  21  23 N3        29.97R
$$
MNZ071>073-080-081-089-090-097-098-050200-
   Southwest Minnesota

CITY           SKY/WX    TMP DP  RH WIND       PRES   REMARKS
MONTEVIDEO     CLEAR     66  30  26 N9        29.99S
GRANITE FALLS  CLEAR     66  31  27 N8        29.99R
CANBY          CLEAR     66  34  30 NW6       30.00S
MARSHALL       CLEAR     65  30  27 N12       29.98R
REDWOOD FALLS  CLEAR     65  27  23 N9        29.97R
OLIVIA         CLEAR     63  30  29 N9        29.97R
PIPESTONE      CLEAR     64  19  17 N7        30.00R
WINDOM         CLEAR     63  28  27 NW10      29.97S
WORTHINGTON    CLEAR     61  35  37 N12       29.99R
JACKSON        CLEAR     63  28  27 N8        29.97S
TRACY          CLEAR     65  32  29 N9        29.98S
SLAYTON        CLEAR     63  29  27 N12       29.99S
$$
MNZ065>067-074>077-082>085-091>093-050200-
   South Central Minnesota

CITY           SKY/WX    TMP DP  RH WIND       PRES   REMARKS
MANKATO        CLEAR     63  23  22 N13       29.95S
NEW ULM        CLEAR     64  27  24 VRB6      29.95R
ST JAMES       CLEAR     61  27  27 NW10      29.96S
FAIRMONT       CLEAR     64  28  25 N12       29.95R
GLENCOE        CLEAR     63  29  28 N5        29.96R
OWATONNA       CLEAR     61  19  20 N13       29.95R
WASECA         CLEAR     59  28  31 N9        29.96R
ALBERT LEA     CLEAR     63  27  25 N14       29.94R
$$
MNZ078>079-086>088-094>096-050200-
   Southeast Minnesota

CITY           SKY/WX    TMP DP  RH WIND       PRES   REMARKS
ROCHESTER      CLEAR     57  27  31 N14       29.94R
RED WING       CLEAR     63  19  19 N6        29.93R
STANTON        CLEAR     62  23  22 N7        29.93S
DODGE CENTER   CLEAR     57  27  30 N8        29.94S
WINONA         CLEAR     61  23  23 NE9       29.93R
AUSTIN         CLEAR     57  27  30 N7        29.94R
PRESTON        CLEAR     56  26  32 N12       29.93R
$$
ABBREVIATIONS USED IN REMARKS
   TC - TEMPERATURES IN CELSIUS
  WCI - WIND CHILL INDEX
   HX - HEAT INDEX
  VSB - VISIBILITY
$$




USA.gov is the U.S. government's official web portal to all federal, state and local government web resources and services.